GFSFLT1_850_thetae_048.txt.gz
Theta_e
348 349 348 347 347 346 345 345 346 344 344 344 345 343 344 345 344 343 343 343 339 333 331 331 338 341 342 342 345 343 346 344 343
347 347 347 349 349 348 347 346 347 346 344 344 344 343 343 344 345 344 343 343 343 340 332 333 340 342 342 342 344 347 346 344 342
344 346 345 346 349 349 348 348 346 348 348 346 344 343 344 344 345 345 344 344 344 344 338 334 338 342 343 343 344 345 348 347 344
342 344 344 345 347 345 348 349 348 348 347 348 347 346 345 345 345 344 345 344 344 345 342 337 336 340 342 344 344 345 345 348 345
333 341 344 345 345 346 347 348 348 348 348 348 348 348 347 347 347 346 344 345 345 345 344 340 337 338 341 342 344 345 346 347 348
331 336 342 344 343 343 346 347 347 347 348 348 348 348 348 348 348 347 346 346 345 345 345 342 338 338 338 339 341 344 346 348 349
326 326 330 335 343 343 343 345 344 345 347 347 347 348 348 347 347 347 346 346 345 346 345 345 341 337 336 336 338 342 345 346 348
331 330 329 329 336 342 343 345 345 345 346 347 347 347 347 347 347 346 346 346 346 346 345 345 344 338 335 336 336 337 339 342 345
341 337 330 328 331 338 343 345 345 344 345 347 347 347 347 347 347 347 346 346 346 345 345 345 345 342 336 334 334 333 333 337 338
342 339 330 325 333 338 343 345 345 345 345 347 347 347 347 347 347 347 346 346 346 344 344 344 344 342 339 334 332 331 331 332 334
338 345 336 336 340 341 342 345 345 345 346 346 347 347 347 347 347 347 347 346 346 344 344 343 342 341 338 336 332 331 331 331 332
339 347 340 342 343 344 345 345 346 346 346 346 347 347 346 347 347 347 347 347 346 346 345 343 342 341 341 339 335 333 333 333 333
345 348 344 343 344 345 345 346 346 346 346 346 347 347 346 347 348 348 348 348 348 348 348 348 348 347 347 347 347 346 345 342 340
347 348 346 346 346 346 346 346 346 346 346 347 347 347 347 347 348 348 348 349 349 349 349 350 351 351 352 353 354 354 354 354 355
344 350 347 346 348 348 348 348 347 347 347 347 347 347 348 348 348 349 349 349 350 350 351 352 353 353 354 354 354 355 355 356 357
334 343 350 353 352 347 349 349 349 349 348 348 348 349 349 350 351 351 351 351 351 352 352 353 353 354 354 355 355 355 356 356 357
328 333 342 348 349 349 351 352 352 352 353 353 353 352 353 353 353 354 354 354 354 354 354 354 355 355 355 355 355 354 354 355 357
321 327 332 341 346 347 347 347 349 351 352 350 347 349 351 353 355 355 356 356 356 356 356 356 356 356 356 356 355 354 356 358 360
316 317 322 329 339 345 346 345 344 343 342 344 348 348 347 344 343 342 347 352 354 356 355 355 356 358 356 358 358 358 358 359 360
316 315 315 315 320 336 343 345 344 343 342 338 336 338 341 345 348 349 348 343 343 347 350 351 355 359 359 359 358 359 358 359 358

GFSFLT1_850_thetae_051.txt.gz
Theta_e
348 349 349 349 348 347 346 345 344 342 343 344 345 342 341 341 341 342 342 342 343 342 341 340 341 340 338 342 342 344 343 345 345
348 349 349 349 348 347 347 345 345 344 343 343 344 344 344 344 343 344 345 344 343 343 342 339 336 335 337 341 341 344 345 344 345
345 348 349 349 349 348 345 343 342 344 344 342 343 342 343 344 343 343 344 344 343 343 343 342 335 333 338 341 341 343 344 347 346
340 346 348 349 350 349 348 347 344 342 344 344 342 342 342 343 343 343 344 344 344 343 343 344 341 334 335 339 341 343 344 344 346
337 342 346 347 348 350 350 348 347 345 343 344 344 343 343 343 343 343 344 344 344 345 344 344 345 340 334 337 340 342 343 344 345
333 341 344 346 346 348 350 350 348 348 346 346 345 346 346 345 345 344 344 345 345 344 345 344 345 343 337 335 337 340 343 345 346
326 330 338 344 346 347 347 348 348 348 347 348 348 346 346 347 347 346 346 346 346 346 345 345 345 345 339 336 335 336 339 343 346
336 334 330 339 344 342 343 346 347 347 348 348 348 347 347 347 347 347 347 347 346 345 345 345 345 345 343 338 336 335 334 339 342
343 343 344 339 335 343 342 342 345 345 346 346 346 346 346 346 347 347 347 347 346 346 344 345 345 345 345 343 337 333 332 332 336
340 342 343 346 341 333 334 335 338 343 343 345 346 344 345 346 346 347 346 347 347 346 346 345 345 345 345 344 341 335 333 332 332
337 340 342 344 346 334 329 335 344 344 347 345 346 344 345 346 346 346 347 347 347 346 346 346 344 344 345 344 342 337 333 332 333
329 337 343 345 347 333 330 342 344 344 345 345 346 345 345 346 345 346 346 347 346 346 346 345 344 343 343 343 341 337 334 334 335
339 340 346 346 340 341 341 343 346 344 345 345 344 344 345 346 346 345 345 345 346 346 346 345 344 343 341 340 339 337 336 336 338
337 342 347 350 345 345 342 344 346 343 345 344 344 345 346 346 346 346 346 346 346 346 347 346 346 346 345 344 344 345 345 346 346
342 344 345 347 347 346 346 344 344 344 344 345 345 346 346 346 347 346 347 348 348 348 348 348 348 348 349 350 350 351 352 353 352
332 345 344 347 348 346 346 346 346 346 346 346 346 346 347 346 347 347 348 348 349 349 350 350 350 351 351 352 353 353 354 354 355
318 335 344 344 347 348 348 346 346 346 346 346 346 346 347 347 348 348 349 349 349 350 351 351 353 354 354 353 353 354 354 354 355
315 316 327 341 346 345 347 348 351 354 355 353 349 349 349 349 351 351 351 351 355 352 352 354 353 353 356 355 354 353 354 354 353
316 315 314 314 319 343 344 344 342 342 343 348 353 355 354 354 353 353 353 355 354 354 355 355 355 355 355 357 356 356 357 356 355
315 315 314 314 313 314 331 344 343 343 340 338 339 342 347 352 346 343 347 354 354 355 355 356 356 356 357 357 358 357 357 358 358

GFSFLT1_850_thetae_057.txt.gz
Theta_e
349 350 349 348 347 347 348 349 348 347 350 351 349 343 339 330 332 343 345 346 348 347 346 345 349 349 353 353 355 353 353 352 352
348 350 350 350 349 348 348 349 349 349 349 351 348 349 342 333 329 332 343 343 345 349 346 347 347 351 354 353 352 352 353 351 352
347 350 349 350 351 350 349 349 350 350 350 352 351 349 347 339 332 330 335 344 349 349 349 347 350 348 351 353 353 352 351 351 351
342 346 347 349 351 351 351 351 350 351 351 351 353 351 351 346 344 344 335 345 346 350 350 351 346 350 351 351 352 352 352 349 352
338 340 344 347 348 350 352 352 352 351 351 352 353 353 353 349 347 347 345 333 348 349 349 349 351 347 351 350 349 352 353 354 350
336 338 340 345 347 348 352 352 353 352 352 352 352 354 354 352 349 345 344 346 341 345 345 344 347 348 347 349 349 349 353 352 353
335 337 338 342 346 348 350 352 353 353 352 352 352 352 353 353 352 351 348 349 344 343 342 341 342 343 344 345 350 350 350 354 354
334 336 338 340 343 347 350 351 353 354 353 352 352 351 352 351 352 353 353 350 350 344 343 339 340 343 345 346 352 353 350 351 353
335 336 336 336 342 345 348 350 353 355 354 354 353 352 351 351 353 354 352 352 350 349 344 340 341 343 344 346 353 351 350 348 350
339 340 340 342 343 341 344 347 351 354 356 354 354 353 353 352 353 352 350 351 350 346 339 339 342 343 344 345 345 349 349 348 345
342 342 343 344 345 345 345 345 348 351 355 356 355 355 355 354 355 354 350 351 347 344 340 341 342 344 345 345 345 344 345 347 345
343 344 345 345 345 346 347 348 345 346 351 357 356 357 355 357 355 357 356 351 348 346 343 343 344 345 345 346 345 345 341 344 346
339 342 345 347 348 349 350 351 350 349 347 353 358 357 357 357 357 358 358 355 354 348 345 345 346 346 345 345 343 341 342 342 344
333 337 344 346 352 353 354 355 353 352 347 350 354 358 359 359 359 359 359 359 358 357 350 357 351 355 351 347 347 345 342 341 342
327 333 340 350 355 356 355 355 355 354 352 347 354 357 359 360 360 359 361 359 359 360 359 357 359 357 359 360 351 347 345 342 341
325 330 339 348 354 359 357 352 350 352 350 350 355 356 359 360 360 360 360 360 359 361 360 360 360 361 360 359 358 359 355 344 338
325 325 331 339 347 352 353 355 356 354 357 356 357 358 359 359 360 360 360 362 363 362 361 361 360 360 359 357 355 352 355 354 342
325 325 325 327 334 340 346 353 357 357 358 357 359 359 359 359 360 361 360 361 361 361 360 360 359 357 355 353 354 356 357 360 362
324 324 324 322 325 332 337 344 349 354 356 358 358 359 359 361 360 361 361 361 360 361 361 360 359 359 359 361 361 360 361 360 362
322 322 323 323 322 323 325 334 344 349 352 357 358 359 360 361 361 362 361 361 360 360 360 359 360 359 359 359 360 361 361 361 362

GFSFLT1_850_thetae_060.txt.gz
Theta_e
349 350 349 350 349 349 348 347 347 349 349 348 345 340 332 340 341 340 346 349 346 350 347 351 350 347 345 339 350 346 351 343 344
349 346 346 350 350 349 350 349 348 349 350 348 347 339 330 329 331 331 344 346 349 346 348 348 347 350 349 348 349 352 347 348 350
342 343 344 347 350 349 350 350 350 349 351 351 350 349 341 329 328 327 328 342 346 349 345 346 354 348 347 345 348 348 350 349 350
342 342 346 349 348 350 349 350 350 350 350 354 353 351 348 342 331 329 328 334 338 344 348 348 345 352 349 349 347 351 349 346 353
344 345 347 343 341 347 350 350 351 352 351 351 354 354 353 349 343 334 331 329 335 341 343 350 348 346 351 350 349 348 350 347 347
345 345 343 338 343 349 351 350 351 352 352 352 354 356 355 354 352 348 338 331 330 337 339 343 349 346 342 346 345 344 343 346 346
333 343 343 346 349 352 353 352 351 352 352 353 353 356 356 355 355 351 346 340 333 342 343 337 342 343 343 342 343 343 340 341 348
333 333 337 338 342 348 353 354 353 353 353 353 353 353 355 356 356 355 354 350 341 337 338 336 335 338 340 343 345 343 344 341 343
343 335 337 338 339 342 350 355 354 354 353 354 353 353 354 355 356 357 355 354 351 346 340 337 336 337 338 341 344 345 350 348 345
341 346 342 344 345 345 350 353 356 356 355 354 354 353 354 354 355 356 356 355 354 354 354 347 341 337 337 339 341 344 350 351 350
335 345 346 346 346 346 347 343 342 358 357 356 355 355 354 354 354 354 355 356 356 356 356 355 352 346 339 337 338 342 344 349 350
337 341 341 346 347 347 347 345 347 350 355 357 355 356 355 355 355 354 354 354 354 356 357 356 355 349 341 337 338 341 343 345 348
333 332 336 342 347 349 351 346 343 349 350 359 358 357 356 357 357 355 355 355 353 354 356 353 352 347 342 339 339 341 343 344 347
328 330 334 335 339 345 349 355 352 351 347 351 358 358 356 359 359 358 357 358 356 355 355 357 355 354 351 350 343 343 344 345 346
326 328 331 334 339 349 358 361 360 356 353 347 351 359 359 357 360 360 359 360 360 359 358 358 360 357 358 357 353 349 348 345 345
325 326 329 331 338 351 357 359 358 362 358 354 350 353 359 359 361 361 362 361 362 361 360 360 360 361 360 361 361 356 352 351 350
325 326 326 328 336 347 350 352 353 357 360 358 357 351 360 359 361 363 362 361 363 361 361 361 363 362 363 362 361 363 362 358 355
323 324 323 322 327 335 340 342 350 355 358 362 355 352 361 361 362 363 362 360 364 362 362 362 361 363 360 363 362 358 359 360 356
323 322 323 322 320 325 332 333 344 354 357 359 363 364 364 363 363 363 363 360 365 364 362 363 362 359 362 360 361 359 356 352 352
321 321 322 324 321 317 321 327 332 345 353 357 359 361 362 362 361 362 362 362 363 364 365 363 362 361 360 360 357 353 355 359 358

GFSFLT1_850_thetae_063.txt.gz
Theta_e
346 346 346 350 348 346 346 345 346 345 344 344 340 336 340 338 339 342 346 350 347 350 348 345 347 345 341 340 338 345 345 344 340
341 345 345 350 349 347 346 346 347 346 345 344 344 334 333 339 338 341 345 347 351 352 350 345 349 349 347 346 342 340 339 344 341
344 350 348 348 348 349 347 346 347 347 346 345 345 344 333 332 333 334 343 345 348 348 348 350 348 351 349 348 346 337 341 343 344
347 342 342 342 346 350 350 348 348 347 348 347 346 347 344 332 332 332 331 343 345 347 344 347 346 351 350 348 347 340 339 343 345
348 343 339 346 345 349 350 350 349 348 348 349 347 347 347 345 331 328 328 328 343 343 346 343 345 347 351 350 348 347 341 343 343
347 344 347 346 346 347 349 348 350 350 349 349 350 349 348 348 348 336 328 326 326 339 338 342 347 354 349 350 349 346 339 339 338
347 344 345 343 343 337 338 346 349 350 351 350 352 351 351 350 350 348 341 330 328 327 327 334 341 349 348 347 346 346 340 340 336
340 345 347 344 341 339 341 343 348 351 351 352 352 354 353 352 351 350 350 345 336 331 328 328 329 336 348 343 344 342 340 342 341
339 338 345 347 344 342 340 348 349 348 351 353 352 353 355 355 354 353 352 351 347 340 336 331 330 331 332 340 340 339 339 341 342
337 334 335 337 345 348 347 343 341 340 352 353 353 353 354 355 355 355 354 353 353 349 345 340 336 335 336 333 337 337 336 337 341
333 333 332 332 335 345 345 346 349 343 349 354 354 354 353 354 354 353 354 354 354 353 351 348 343 342 339 334 333 335 336 337 340
328 329 331 331 329 334 338 347 350 351 347 344 354 356 354 353 353 353 354 354 354 354 353 351 349 347 344 341 339 337 339 340 341
324 327 330 332 330 333 331 343 350 351 342 344 351 356 357 354 354 354 353 353 353 354 354 353 352 352 351 350 347 345 343 341 341
322 325 328 331 334 336 339 349 355 346 350 345 350 357 358 356 355 354 354 354 353 353 354 354 355 353 353 353 350 345 342 340 342
320 326 327 329 334 335 337 347 351 354 355 347 355 349 359 358 357 357 356 355 354 354 354 354 354 355 355 353 350 345 341 340 343
320 324 325 328 330 336 338 343 348 351 355 356 353 357 352 358 358 357 358 358 357 355 356 355 355 356 356 354 351 350 345 341 342
319 321 324 323 326 330 334 336 343 345 350 354 358 358 358 352 361 359 359 359 359 358 357 357 358 357 357 357 357 356 353 348 349
320 322 323 322 323 323 330 332 335 343 349 353 355 358 359 360 353 362 359 360 361 360 359 358 359 358 358 360 360 354 352 351 350
320 322 321 321 322 323 324 328 330 335 345 352 355 358 357 359 358 359 361 360 361 362 362 361 360 359 359 360 360 359 357 357 356
320 319 321 322 321 322 319 321 323 330 336 347 353 356 362 365 365 364 364 363 362 362 364 361 363 363 362 362 361 360 363 360 356

GFSFLT1_850_thetae_066.txt.gz
Theta_e
345 345 347 347 344 344 344 344 344 344 343 343 343 338 341 341 345 348 350 349 347 347 348 347 344 340 345 341 337 339 342 341 339
344 346 347 347 345 344 344 344 344 344 344 343 343 343 335 338 341 346 348 348 349 347 347 347 345 345 342 341 339 335 341 341 340
346 346 345 348 346 344 345 345 344 344 344 343 343 343 343 334 335 340 346 346 349 346 349 347 345 348 346 345 345 343 340 340 339
344 345 345 349 348 346 345 345 345 345 344 344 344 344 343 342 333 335 341 343 347 348 347 352 348 350 349 350 347 347 340 341 340
344 344 346 348 349 348 346 346 346 346 346 345 345 344 344 344 341 330 334 338 345 347 351 350 349 349 348 350 349 348 345 336 341
344 346 347 347 347 348 348 348 346 346 346 346 346 345 345 344 345 341 329 333 338 344 347 349 347 346 346 349 350 348 346 342 336
346 344 343 340 338 341 345 346 348 347 347 347 347 347 346 346 345 346 344 330 330 334 344 345 347 346 344 345 347 347 348 345 336
341 342 344 345 344 344 344 342 344 348 348 348 348 348 348 347 347 346 346 346 338 327 328 338 343 343 346 347 350 349 347 346 344
335 335 334 340 342 343 343 344 339 341 345 348 349 350 350 349 349 348 348 347 347 346 333 327 329 342 340 344 348 350 347 344 340
329 332 334 331 332 332 336 344 345 344 345 350 350 350 351 351 351 351 350 350 349 348 347 342 331 328 329 333 340 346 346 343 341
324 328 328 330 330 328 331 333 345 347 345 344 351 351 351 351 352 352 352 352 352 352 350 347 344 336 332 329 330 332 334 336 340
321 323 326 328 332 333 334 343 347 348 346 347 345 353 352 352 352 353 353 353 353 353 353 351 348 344 341 336 332 331 334 337 337
320 321 324 326 329 332 332 337 340 346 346 339 338 347 352 353 353 353 354 353 353 353 353 353 350 348 347 346 341 337 338 339 337
317 320 321 323 326 329 331 332 341 346 341 346 341 339 342 345 350 354 355 354 354 353 353 353 353 352 350 348 346 344 344 344 344
315 319 319 322 323 326 328 330 326 331 343 342 340 346 348 348 350 356 357 356 355 354 353 354 354 353 353 352 351 349 347 346 348
316 316 318 319 322 324 326 329 329 330 334 339 335 336 341 343 351 355 357 358 357 355 355 355 354 354 353 353 353 352 350 347 345
316 317 317 320 321 323 324 326 330 331 332 338 337 331 335 336 344 352 357 358 358 357 356 355 355 355 354 354 354 353 352 350 346
316 317 318 320 322 322 322 323 325 330 334 337 340 334 335 339 346 349 353 357 359 359 358 357 356 356 355 355 355 354 353 351 348
316 316 319 321 321 323 321 321 323 325 328 334 335 339 343 350 351 352 359 357 359 360 360 359 359 358 357 357 357 356 355 354 352
315 317 319 320 321 320 320 321 321 320 323 329 335 338 339 346 353 359 359 360 360 359 361 361 360 360 359 359 359 359 358 358 357

GFSFLT1_850_thetae_069.txt.gz
Theta_e
349 349 348 347 343 343 343 342 342 342 341 341 341 341 339 336 335 342 343 345 347 347 348 346 346 343 341 341 339 341 346 341 338
348 348 345 347 345 343 344 343 342 342 342 342 342 342 342 336 335 342 343 345 348 346 346 347 347 348 344 346 346 340 339 343 341
348 348 346 346 346 344 344 344 344 343 343 342 343 342 342 341 334 336 342 346 348 348 348 347 347 348 345 342 346 345 340 344 342
344 346 347 345 346 345 345 345 344 344 343 343 343 343 343 342 340 333 335 344 346 348 348 346 348 349 347 347 345 345 345 343 342
342 343 344 345 345 345 343 344 344 344 344 343 343 343 343 343 342 341 332 334 343 347 347 347 348 350 348 349 349 349 347 347 342
344 344 346 346 347 345 344 343 345 344 344 344 344 344 343 343 343 343 342 332 332 344 345 346 348 348 350 348 348 349 349 348 346
338 342 344 343 343 344 345 345 345 346 346 345 344 344 344 344 344 344 343 343 333 332 337 343 346 349 349 348 347 346 348 348 346
334 335 336 336 339 342 343 343 343 344 346 346 346 346 345 345 345 345 344 344 344 338 329 334 341 345 347 348 347 347 345 345 345
329 328 330 330 331 335 338 344 344 343 340 345 347 347 347 347 346 346 345 345 345 345 344 332 328 337 343 344 346 346 347 347 347
324 325 326 331 332 331 338 337 344 345 343 342 344 346 348 348 348 348 348 348 347 346 346 346 344 332 327 332 340 343 342 344 347
321 323 324 326 329 334 335 338 345 346 346 343 343 348 348 348 349 349 349 349 349 349 348 348 347 346 345 334 326 326 337 341 340
317 320 321 321 324 328 333 332 339 347 350 346 344 347 351 352 351 351 351 351 351 351 351 351 350 349 348 346 343 333 327 327 328
310 315 318 318 319 323 327 330 329 329 344 346 342 341 345 352 354 355 355 354 353 353 353 353 352 352 351 348 344 344 338 334 331
310 314 317 318 319 319 323 326 326 325 325 338 340 341 345 343 349 348 350 350 350 353 354 354 353 353 353 352 350 344 343 341 342
309 311 314 316 317 317 319 324 324 325 325 325 329 340 341 344 347 346 346 347 349 353 354 355 355 354 353 353 352 352 349 347 345
310 311 313 315 317 319 321 322 323 324 326 328 327 327 337 338 337 342 344 348 349 352 355 355 355 355 355 354 353 353 352 351 350
311 311 313 316 318 318 319 322 322 323 323 327 329 330 328 327 335 337 338 342 348 352 355 355 355 355 355 355 354 353 353 353 352
308 310 314 316 317 319 321 321 321 322 323 324 326 328 329 328 326 330 343 339 342 348 352 355 356 356 355 355 356 355 355 354 354
307 309 312 316 316 320 319 322 321 321 321 322 323 325 328 330 328 326 337 347 343 350 354 352 354 357 357 357 358 357 357 356 355
308 310 312 315 316 318 318 319 319 320 320 321 322 324 326 330 330 329 334 343 351 352 355 358 358 358 357 358 358 358 358 357 357

GFSFLT1_850_thetae_072.txt.gz
Theta_e
346 347 348 348 347 344 344 344 344 343 341 341 341 341 340 337 336 336 339 342 341 344 345 346 342 341 341 344 342 343 342 345 345
344 348 347 348 348 346 346 345 345 344 342 340 340 341 341 340 337 337 334 341 341 344 345 345 347 346 346 341 344 344 341 344 347
341 346 348 348 348 347 345 345 346 345 343 341 341 341 341 341 340 337 333 338 341 343 343 344 345 347 347 346 344 346 346 340 343
342 342 347 348 347 347 346 344 344 344 343 341 341 341 341 341 342 339 337 335 341 342 345 343 346 345 348 347 344 343 344 344 342
341 342 343 347 345 346 344 343 343 343 342 342 341 342 341 342 342 342 338 335 335 342 345 345 347 345 347 347 348 348 348 346 346
335 340 344 345 345 344 345 342 342 343 343 343 343 342 342 342 342 342 342 339 333 332 338 343 345 345 345 348 346 348 349 349 348
330 333 335 339 343 343 344 343 343 343 343 343 343 343 343 342 342 342 343 342 341 335 332 335 340 344 344 345 348 349 347 347 349
326 327 331 333 336 339 343 343 344 344 345 345 345 344 344 344 343 343 343 343 343 342 341 332 333 339 342 343 344 344 345 346 346
322 324 325 327 333 336 338 342 344 343 342 344 345 346 345 345 345 344 344 344 343 343 343 343 336 330 335 337 343 343 343 344 344
318 319 320 322 324 330 334 340 342 344 344 342 343 345 346 346 346 346 346 346 345 345 345 344 344 343 333 329 332 336 340 341 342
310 313 316 317 319 323 327 333 338 345 347 346 344 343 344 346 346 347 347 348 348 347 347 346 345 345 345 344 339 330 329 332 337
308 309 311 314 317 320 321 326 329 329 344 347 345 344 345 347 347 347 347 347 348 349 349 349 349 348 348 347 347 346 345 338 329
309 308 308 310 312 315 317 320 325 327 327 337 342 342 342 349 349 350 350 350 350 350 350 350 351 351 351 351 350 350 348 347 346
309 308 309 309 310 311 314 318 322 325 328 328 328 339 341 344 348 349 350 353 353 351 351 351 352 352 353 353 352 352 352 351 349
308 308 309 309 309 309 311 315 320 322 324 327 327 328 332 338 341 345 346 348 349 349 349 350 350 350 352 353 354 353 352 353 352
307 307 307 308 309 311 309 312 318 321 321 323 325 327 329 329 327 329 338 341 345 346 348 352 350 351 352 353 355 354 354 353 353
306 306 307 308 308 310 312 311 314 318 321 321 322 323 326 326 328 329 329 327 340 339 345 351 352 353 354 353 355 354 353 354 353
304 305 306 307 307 309 312 315 315 316 320 321 320 320 321 323 324 326 329 329 328 338 341 350 352 352 354 353 354 354 354 354 354
305 305 305 306 307 308 311 314 315 318 318 320 320 320 320 320 321 323 324 329 327 327 340 345 348 351 354 349 350 354 356 355 354
309 308 308 310 311 310 311 313 316 316 317 318 319 319 319 319 320 320 323 326 327 326 327 343 346 354 354 352 350 356 356 356 355

GFSFLT1_850_thetae_075.txt.gz
Theta_e
343 349 349 348 345 345 345 343 343 344 343 341 341 341 341 340 340 341 342 340 339 343 343 343 344 340 340 344 342 344 344 343 344
344 347 346 348 348 345 345 345 344 344 344 343 341 341 341 340 340 339 336 340 340 342 342 344 346 345 345 343 342 340 341 342 344
341 344 348 348 349 346 346 346 345 344 344 344 344 342 341 341 340 340 336 338 338 339 341 345 345 346 348 346 345 344 346 345 340
338 344 347 349 348 346 346 347 346 345 344 344 344 343 341 341 341 341 340 338 336 337 341 343 342 344 345 347 347 342 343 344 344
335 338 342 346 348 346 346 346 345 346 345 345 345 344 342 341 341 341 341 341 338 335 339 342 344 342 345 346 348 346 345 345 345
331 333 335 339 342 343 344 345 344 344 344 344 344 343 343 342 341 341 341 341 341 337 336 341 343 345 346 345 346 347 348 349 347
328 329 332 336 340 341 343 342 342 342 342 344 344 345 343 343 342 341 341 341 342 342 338 335 339 343 344 345 345 346 346 347 348
324 324 326 328 332 337 339 343 343 343 344 343 343 343 343 343 344 343 343 342 342 342 342 341 335 335 338 343 344 344 347 347 346
318 318 319 321 325 329 334 337 341 343 343 344 345 345 345 345 344 344 344 344 343 343 342 342 342 341 336 334 339 343 340 342 343
312 313 314 315 318 322 324 328 332 341 344 344 343 344 345 345 345 345 345 344 344 344 344 344 343 343 343 342 335 333 340 340 342
313 311 310 310 312 315 319 321 326 328 341 345 346 345 342 344 345 346 346 346 346 346 346 346 346 345 344 344 343 342 334 331 336
312 311 310 309 309 310 311 315 320 325 328 336 342 342 344 344 344 346 345 346 346 347 347 347 348 347 347 346 345 345 345 344 337
311 311 310 309 309 309 309 310 314 320 324 327 330 339 341 342 345 345 346 347 347 347 347 347 348 349 349 349 349 348 347 347 346
309 309 309 310 310 309 309 309 310 313 319 322 326 328 333 340 342 346 348 347 348 349 350 350 350 350 350 350 351 351 351 350 350
308 308 308 308 309 310 309 309 309 311 313 317 321 324 328 331 335 338 343 346 349 352 351 353 353 352 351 351 352 352 352 352 352
307 307 307 307 308 308 309 308 308 311 316 314 316 320 322 325 329 330 329 332 339 343 345 347 350 351 350 350 349 350 351 353 353
307 307 307 306 307 308 308 308 308 308 315 316 314 317 320 320 322 326 328 329 329 329 335 340 343 344 351 351 351 351 352 353 354
306 307 308 308 308 308 308 308 307 308 311 316 316 315 317 320 320 320 322 324 327 329 329 332 341 343 349 353 353 352 353 354 354
305 306 307 308 307 308 310 310 311 311 313 315 315 316 316 318 319 319 319 319 321 323 324 326 328 331 342 343 350 352 351 353 353
305 305 305 306 306 306 307 308 312 314 314 314 315 315 316 316 317 317 317 318 319 320 320 320 324 326 333 343 345 349 347 349 349

GFSFLT1_850_thetae_078.txt.gz
Theta_e
341 350 352 350 349 348 348 348 348 349 349 344 342 341 342 341 341 349 348 349 348 348 349 351 351 346 346 343 342 342 343 345 344
346 348 351 351 349 348 348 349 349 349 350 344 343 343 340 341 341 341 348 348 349 349 350 350 352 352 351 348 347 340 348 349 345
344 348 351 351 351 349 348 349 349 350 349 346 344 344 345 342 341 341 340 345 348 350 349 351 351 351 353 350 351 348 339 350 346
340 343 349 350 350 351 349 349 349 349 350 351 350 346 345 347 346 341 341 341 338 338 348 350 351 348 348 349 352 349 345 344 351
335 336 339 348 349 351 350 350 350 349 349 350 351 351 348 345 344 346 348 341 343 341 340 348 352 352 343 349 352 352 343 348 351
332 332 333 337 342 344 347 349 350 349 349 349 349 349 349 346 347 349 344 345 342 343 341 338 347 352 350 344 351 353 345 346 353
327 328 330 331 332 336 341 345 348 349 349 349 348 349 350 348 347 347 343 342 342 342 342 341 337 343 352 352 347 352 349 350 347
327 326 326 328 329 330 333 338 340 342 344 346 350 349 349 350 351 349 348 343 341 341 342 342 342 339 337 344 352 352 353 355 355
321 320 321 323 324 326 328 329 331 340 343 343 344 345 348 351 351 351 351 345 343 346 345 343 342 342 342 341 343 345 349 350 354
318 317 316 317 318 320 322 325 326 328 337 343 346 347 349 346 347 352 353 354 351 346 344 348 347 343 344 343 343 342 336 338 345
319 318 316 316 315 316 318 320 322 324 327 333 340 344 347 347 347 347 348 350 353 352 351 350 348 346 345 344 344 343 343 342 336
316 315 315 315 315 315 317 317 318 322 326 330 329 333 339 342 343 345 347 352 349 353 352 353 352 351 349 347 345 345 344 344 344
314 314 314 314 314 314 316 316 316 318 321 325 329 328 329 332 339 342 345 345 348 350 350 350 352 354 353 351 348 347 346 346 345
313 313 313 312 313 314 315 315 315 316 319 321 323 325 324 326 330 337 342 344 347 347 351 351 351 352 352 354 353 351 348 348 348
312 312 312 312 312 312 313 314 314 315 317 319 321 322 317 319 324 327 330 334 342 345 348 348 349 350 351 354 353 354 351 350 350
311 311 311 311 311 311 312 313 313 314 314 315 316 321 321 319 315 321 324 327 329 333 342 346 346 346 350 353 355 358 357 353 352
310 311 311 311 312 312 312 312 313 313 314 314 316 319 320 320 319 319 320 324 327 331 332 333 338 346 347 348 352 354 356 357 354
309 309 310 310 311 310 308 309 310 312 314 316 315 317 319 319 318 320 320 321 324 324 324 328 329 331 331 341 348 351 354 353 356
307 307 309 309 308 308 308 308 309 310 309 313 316 317 317 317 317 317 318 319 320 320 319 320 322 326 328 329 328 331 341 348 353
306 306 307 306 305 305 305 305 306 307 307 308 311 313 313 314 315 316 316 317 319 319 320 318 320 320 321 324 325 326 328 341 346

GFSFLT1_850_thetae_081.txt.gz
Theta_e
348 351 349 350 349 349 346 344 346 349 352 354 348 348 351 352 353 351 348 350 348 346 349 349 353 349 351 351 351 352 349 350 349
350 344 352 350 350 349 348 346 346 349 351 354 355 353 351 350 352 347 348 348 349 349 350 350 354 350 351 352 352 352 351 350 352
347 352 353 352 351 350 349 349 347 348 351 353 355 356 355 355 355 354 345 351 350 349 350 351 350 352 351 353 352 352 350 350 350
340 342 344 348 350 350 351 350 350 349 351 352 355 355 355 355 355 355 355 353 352 351 350 352 351 354 352 354 354 353 351 347 352
337 339 337 344 347 350 349 350 350 349 349 351 353 355 356 355 355 355 354 355 354 353 352 351 351 352 355 354 353 355 353 352 350
333 335 338 343 344 348 348 346 350 350 351 351 351 353 354 355 355 355 354 354 355 352 350 351 351 352 353 355 353 355 354 353 353
331 331 332 333 338 341 344 345 347 348 350 350 351 352 353 354 354 354 354 354 353 354 352 351 350 348 352 354 353 352 354 355 350
331 331 330 329 329 333 336 341 342 344 347 349 350 351 352 354 354 353 354 355 354 354 354 352 347 348 349 350 352 351 350 352 352
327 326 326 327 328 329 328 328 333 340 342 343 343 345 350 351 350 352 355 355 355 353 353 353 353 352 349 348 350 345 346 352 354
324 323 322 322 323 324 325 325 326 328 333 337 344 347 348 348 349 351 352 354 353 355 352 354 353 354 355 351 344 347 344 341 347
323 322 322 321 320 321 322 322 323 323 327 332 333 338 344 346 347 348 347 351 351 352 352 353 352 353 353 353 353 349 347 345 342
320 319 319 319 319 319 321 320 320 322 325 327 333 331 332 337 341 344 345 348 351 352 351 352 352 353 353 354 353 353 351 348 348
318 318 317 317 317 318 319 320 319 320 321 324 326 327 329 330 331 335 341 343 344 346 350 350 351 351 352 353 353 353 353 351 351
317 316 316 315 316 317 317 318 318 319 320 321 322 324 326 326 328 327 328 335 340 343 345 347 351 350 350 351 352 354 354 353 353
315 315 315 315 315 316 316 316 317 318 319 320 319 319 322 326 325 324 327 327 328 332 337 343 347 348 350 351 352 353 354 353 352
315 315 315 315 316 316 316 316 317 317 318 318 319 319 319 322 324 324 324 320 327 331 334 335 339 345 348 348 350 352 351 353 354
314 314 314 313 313 314 314 313 313 314 315 315 317 320 320 320 322 323 322 323 324 326 330 333 334 337 339 340 346 350 353 353 353
312 312 311 311 311 311 311 311 311 311 313 313 314 315 317 320 321 321 321 322 322 323 324 326 325 325 327 329 331 335 343 341 345
310 310 310 310 310 309 309 308 308 309 310 310 310 312 313 316 318 318 319 320 320 320 320 320 319 318 319 321 324 328 328 328 328
308 308 308 308 308 308 307 307 306 306 306 307 308 308 310 312 313 315 316 317 319 319 319 319 320 320 321 320 319 321 321 325 326

GFSFLT1_850_thetae_084.txt.gz
Theta_e
344 344 343 349 349 349 348 343 344 347 349 342 341 341 338 339 339 340 350 352 351 348 348 350 351 349 345 345 349 345 348 345 340
351 353 351 351 350 350 347 345 345 346 347 344 342 342 345 345 343 342 338 345 347 347 351 350 350 351 350 344 351 348 348 344 346
343 344 351 352 350 350 349 348 345 348 347 349 347 349 348 347 345 343 348 348 348 351 352 351 346 350 350 349 351 351 347 347 348
341 341 346 349 349 350 350 348 348 349 350 348 352 355 355 355 352 349 346 346 344 346 348 352 351 339 350 348 350 349 349 345 352
341 340 342 344 347 347 348 349 349 348 351 351 353 357 356 356 356 355 354 349 346 344 340 338 349 352 352 353 350 350 351 347 348
338 338 339 339 343 342 346 347 346 349 349 351 353 355 355 355 356 355 355 355 353 351 346 343 337 338 348 350 347 346 349 349 347
334 335 336 337 336 340 343 346 347 345 347 350 351 352 349 357 356 356 355 355 355 354 351 347 344 342 348 350 350 349 349 352 349
333 332 332 332 332 334 339 336 339 345 345 348 348 350 349 352 355 355 355 355 354 354 355 353 350 347 344 350 352 353 350 350 353
330 329 329 330 330 329 330 336 337 337 343 344 344 345 348 349 349 353 353 352 353 354 354 354 354 353 350 348 347 351 351 351 350
327 326 325 326 326 326 326 326 327 334 338 339 340 343 345 346 348 350 351 353 353 352 352 352 354 355 354 353 351 347 349 348 348
326 325 324 323 324 325 323 323 325 326 331 335 334 338 341 343 346 347 348 349 352 353 352 353 353 351 352 354 353 353 352 349 349
323 322 322 321 321 323 323 322 322 324 326 328 329 330 330 332 337 341 344 345 346 348 350 351 352 353 353 352 352 353 353 355 351
320 320 320 319 319 320 321 321 321 323 323 325 325 326 328 327 326 327 332 339 342 343 346 348 350 351 352 352 352 352 352 352 353
319 318 318 318 318 319 319 319 320 321 322 323 322 319 319 325 326 320 327 328 329 334 339 342 344 346 349 351 351 351 350 352 353
318 318 317 317 317 318 318 319 319 320 321 320 320 321 319 318 321 324 322 318 316 319 328 332 336 339 342 345 347 349 350 350 350
317 317 317 317 317 319 319 317 316 316 317 316 317 315 318 322 320 318 323 323 317 324 328 330 334 338 340 340 344 344 348 349 350
317 317 316 315 315 315 315 314 314 313 313 314 314 315 316 316 320 321 321 322 323 324 324 326 330 331 331 333 335 337 342 348 350
315 315 314 313 313 313 313 312 311 311 311 311 310 310 312 314 315 318 320 321 322 322 322 322 321 322 321 319 318 320 323 326 332
313 313 312 312 312 312 311 310 310 308 307 307 308 309 309 310 312 314 314 316 317 318 318 319 320 320 319 320 320 319 318 320 322
310 311 310 310 310 310 309 309 307 306 305 306 306 306 307 308 309 310 312 313 314 315 315 316 316 317 319 320 320 320 320 319 318

GFSFLT1_850_thetae_087.txt.gz
Theta_e
347 345 344 345 348 349 346 342 342 342 345 334 338 342 345 347 343 348 349 349 348 350 348 346 350 348 346 344 339 347 345 343 337
341 340 343 344 347 349 349 343 343 342 344 338 338 334 334 345 343 345 345 351 348 350 347 348 348 350 347 346 348 343 340 343 341
344 344 344 345 344 347 350 346 345 342 342 338 339 339 337 338 339 340 340 348 347 349 347 348 349 346 346 344 346 345 344 346 346
343 345 351 348 347 347 349 348 348 346 345 341 340 340 340 341 341 341 343 342 345 350 348 350 350 346 348 346 348 346 345 344 348
342 343 347 348 349 349 349 347 349 348 348 347 349 347 344 344 346 346 343 343 343 345 349 349 348 345 344 349 346 349 350 346 344
340 340 342 344 344 347 346 339 347 348 348 347 348 348 349 345 353 352 350 346 343 342 343 344 345 345 347 342 342 350 347 347 349
338 337 339 340 342 342 342 344 346 345 347 341 347 349 348 349 352 350 351 352 354 353 347 345 345 340 339 345 346 347 347 346 348
334 333 333 336 341 342 342 343 345 344 342 345 341 347 351 347 346 349 352 351 354 354 354 353 350 348 346 345 346 347 347 346 349
332 332 330 328 329 332 336 336 339 341 342 344 342 342 340 339 337 338 347 352 354 352 352 351 354 352 352 349 347 346 347 348 350
328 327 327 326 325 325 327 328 334 335 336 337 342 340 341 343 345 347 347 346 348 351 351 353 353 352 354 353 353 349 348 350 353
324 324 325 324 323 322 324 326 327 331 331 331 335 335 337 341 342 345 346 345 346 350 349 349 350 352 352 353 353 353 351 348 347
323 321 322 323 323 322 322 323 324 326 328 329 329 328 328 329 333 337 340 342 344 346 347 349 350 350 351 351 351 350 352 351 349
320 320 320 320 321 321 321 321 322 323 323 324 322 322 325 323 321 322 327 330 333 338 341 343 345 347 347 349 351 351 350 350 350
319 319 318 318 319 319 318 318 319 319 320 320 318 316 314 316 319 318 319 319 316 319 325 332 335 338 341 343 344 347 349 350 351
318 318 317 318 318 318 318 318 318 319 319 319 317 315 314 315 314 314 315 316 316 317 322 329 331 334 338 343 346 346 345 345 347
318 318 317 318 318 319 318 318 316 315 315 314 314 313 312 311 312 317 318 319 319 322 324 324 325 332 332 334 336 336 335 339 342
317 317 316 315 316 315 315 314 312 311 311 311 311 310 310 313 313 316 319 321 323 324 324 323 323 323 325 327 328 324 317 318 322
316 315 314 313 313 313 313 311 309 308 308 308 307 308 308 310 311 313 315 319 319 319 320 319 319 320 319 319 319 318 319 319 318
314 313 313 313 312 312 310 310 309 307 305 306 305 305 306 306 307 308 309 310 311 316 315 317 318 319 318 318 318 319 320 320 320
313 311 311 311 311 310 309 308 307 305 306 304 303 304 305 306 306 306 305 305 305 306 307 308 311 313 317 319 319 319 319 319 318

GFSFLT1_850_thetae_090.txt.gz
Theta_e
347 346 345 346 347 346 346 344 344 345 344 343 339 337 344 346 347 345 345 345 348 348 346 344 342 346 345 342 340 341 344 341 335
347 345 345 346 346 347 347 347 346 344 342 339 336 333 342 344 346 346 344 348 346 349 347 346 346 348 349 347 342 341 344 343 340
343 344 343 344 346 346 347 347 346 345 342 340 331 333 336 340 344 344 344 348 348 348 348 347 347 346 349 341 340 346 342 340 340
344 344 341 342 344 344 343 347 346 347 345 344 341 336 332 334 341 339 338 338 348 348 349 346 348 350 346 345 337 342 344 344 344
343 346 348 348 344 343 345 347 346 347 346 344 342 340 339 336 337 339 340 340 345 345 346 349 348 350 346 343 345 347 346 348 342
341 344 346 347 346 347 348 347 346 343 344 345 343 341 341 341 341 341 341 342 343 345 344 344 349 349 348 346 346 346 348 348 349
339 340 342 343 345 346 347 346 344 341 342 345 343 344 343 344 344 343 343 343 344 343 344 345 344 344 344 344 347 346 348 349 345
335 337 339 342 343 342 343 342 342 341 342 341 341 339 342 343 343 344 344 345 345 348 348 347 346 346 347 343 342 344 345 347 348
330 331 334 337 340 341 342 343 343 343 344 344 337 338 342 341 342 344 344 345 346 350 351 349 349 350 350 349 349 347 345 346 348
330 328 326 327 329 334 335 337 340 341 342 342 342 342 341 340 342 341 340 340 345 346 347 348 347 348 347 351 348 349 348 347 346
326 326 324 324 324 326 330 333 331 332 332 333 334 336 338 341 341 341 339 341 341 341 343 344 348 349 348 348 348 352 351 351 349
324 323 322 322 323 323 327 331 331 329 329 329 330 330 331 332 332 340 338 339 341 343 342 342 343 347 347 348 349 349 350 350 349
321 323 323 322 321 322 322 323 325 326 326 326 327 327 326 325 326 329 329 328 325 325 329 337 338 341 343 345 346 346 347 350 350
320 319 319 319 320 319 319 320 321 321 321 320 318 316 316 319 321 322 322 319 317 318 326 329 332 337 340 341 343 344 344 345 346
318 318 318 318 318 318 318 318 318 317 316 315 315 314 313 313 314 314 314 315 316 318 323 325 328 335 339 339 337 338 333 335 338
317 317 317 318 317 318 318 318 317 315 313 313 311 311 310 310 310 311 314 315 316 320 323 323 324 326 328 328 326 325 323 320 318
317 317 317 317 317 317 317 316 314 311 310 309 309 308 309 310 311 312 315 318 320 321 321 322 321 321 321 322 322 320 319 318 318
317 317 317 316 315 314 313 312 309 308 307 307 306 307 307 307 308 310 312 314 317 318 317 317 318 318 318 318 318 318 318 318 318
316 316 316 314 311 311 310 308 307 306 305 305 305 305 305 305 305 305 305 306 308 309 311 313 313 314 316 317 317 318 318 318 318
315 314 314 312 312 311 309 306 305 304 303 303 302 302 302 301 301 301 302 302 302 303 303 303 304 306 307 310 313 315 316 316 317

GFSFLT1_850_thetae_096.txt.gz
Theta_e
346 346 341 344 346 346 346 345 345 343 343 342 342 343 339 340 343 342 343 346 346 345 346 346 346 344 343 342 341 342 343 342 339
345 343 341 343 346 345 344 344 345 345 344 343 343 343 342 341 339 343 344 343 345 344 346 347 344 342 343 345 344 341 340 340 343
345 343 342 344 345 343 342 342 343 345 344 344 343 344 344 343 341 342 343 343 343 344 345 347 347 345 345 346 347 348 343 341 342
345 344 342 342 344 342 342 342 344 345 345 344 344 344 345 344 343 343 345 344 345 345 347 345 345 344 345 347 347 345 340 341 342
343 344 344 343 344 345 344 342 345 346 345 342 345 345 346 345 342 341 343 344 343 344 344 346 345 344 345 347 346 346 341 342 342
343 343 343 344 345 346 346 344 344 345 346 345 345 345 343 342 344 342 340 341 343 343 342 341 339 344 342 343 345 346 344 344 344
341 344 343 344 343 343 345 345 342 342 344 345 343 341 344 342 343 342 341 338 337 338 340 340 343 343 344 345 346 346 347 346 346
340 340 343 345 345 343 343 345 344 344 344 344 343 340 342 342 343 343 342 340 340 340 341 342 342 344 344 344 346 348 347 344 346
336 338 340 341 342 344 344 344 345 344 345 344 343 342 343 341 341 341 341 342 342 342 342 342 343 344 344 343 342 344 346 348 344
334 335 338 340 342 342 342 342 343 343 343 342 341 339 339 340 339 339 339 338 339 340 340 342 342 343 344 345 345 345 343 344 345
334 335 337 339 339 339 341 341 341 341 340 340 341 340 340 341 340 338 339 339 338 338 339 338 340 341 341 341 342 343 343 343 344
333 334 336 337 337 337 337 338 338 340 340 340 340 340 339 339 339 340 340 339 339 338 337 337 337 339 337 338 341 342 342 342 344
329 333 333 334 334 334 334 332 333 335 334 334 334 332 332 333 335 337 334 335 336 337 336 336 337 336 336 339 340 341 342 343 343
325 327 330 332 332 331 329 328 327 328 327 328 328 326 326 325 327 328 329 329 329 329 329 332 334 336 338 338 339 339 341 340 341
323 324 327 329 326 325 324 322 321 321 319 318 317 316 315 315 316 318 319 319 319 323 329 332 334 331 332 334 329 329 336 337 339
320 320 321 320 320 319 318 316 315 315 313 312 312 311 311 311 311 312 313 315 317 319 322 323 326 325 325 326 326 328 328 329 326
320 319 318 318 317 316 316 316 314 313 311 310 309 308 308 309 309 310 310 311 313 315 317 319 320 320 320 320 320 321 321 320 319
319 318 317 317 317 316 315 313 312 310 308 307 307 307 307 308 308 309 310 311 312 313 314 314 315 316 316 315 315 314 314 313 312
318 317 317 316 315 314 313 311 309 307 306 305 305 305 305 306 306 306 306 306 307 307 307 308 309 309 308 306 306 305 305 305 305
317 317 317 316 315 314 312 309 307 305 304 304 304 304 304 303 303 302 302 301 301 301 301 301 301 301 301 302 302 302 302 302 302

GFSFLT1_850_thetae_099.txt.gz
Theta_e
347 347 345 347 347 345 345 345 345 344 342 341 343 341 343 342 342 343 342 343 345 346 346 346 346 344 343 342 341 342 343 342 340
348 347 345 343 347 346 347 346 344 344 343 342 342 340 342 342 341 343 342 343 346 345 345 346 346 345 343 343 341 342 341 342 341
347 346 346 346 343 345 346 346 345 345 345 343 343 341 342 343 342 339 341 344 344 344 345 346 347 347 345 345 345 346 346 342 341
348 346 345 347 344 344 346 343 343 343 344 345 344 343 343 343 343 343 340 343 343 344 346 345 345 345 344 346 347 346 343 341 340
347 347 346 345 345 345 346 343 342 342 342 344 345 344 345 345 343 342 342 341 343 343 345 346 346 345 344 345 345 346 344 340 341
346 346 344 344 345 345 345 343 342 343 343 343 344 344 344 344 343 343 343 340 341 343 343 341 342 340 343 343 343 346 345 343 343
345 345 346 344 343 343 343 342 343 344 345 344 344 343 344 343 342 341 343 340 338 339 341 340 340 341 342 342 342 346 346 347 347
343 343 344 344 344 345 346 345 344 344 342 343 342 342 343 341 343 340 343 342 339 339 339 340 340 341 342 343 343 345 346 348 347
341 343 344 343 343 344 344 345 345 344 342 343 343 342 343 341 342 342 342 342 342 341 342 341 342 342 342 343 342 340 341 344 345
339 340 342 344 344 343 343 344 344 344 345 344 344 342 342 343 341 340 339 339 339 340 341 341 341 342 342 342 343 343 343 344 342
336 338 339 340 342 343 343 344 344 345 344 344 343 342 341 340 341 340 339 339 338 338 338 339 338 338 340 340 340 342 343 343 344
335 336 337 340 341 342 341 341 342 343 342 341 340 340 340 339 340 339 339 339 339 339 340 338 337 337 337 338 338 339 340 341 342
335 336 336 338 337 337 339 338 339 340 339 338 337 337 338 337 338 339 336 335 336 336 337 337 336 336 337 337 338 338 338 340 340
334 334 334 335 334 334 333 332 333 334 332 332 331 331 330 330 332 332 331 330 330 332 334 335 336 336 336 337 338 338 337 338 338
332 332 332 330 330 328 325 323 324 325 324 323 321 320 321 321 321 321 321 320 321 326 330 332 333 335 335 336 335 336 333 330 336
331 331 326 325 325 324 322 319 316 315 314 313 313 313 313 313 314 314 315 317 320 324 329 330 330 329 329 328 327 326 327 327 325
327 327 324 322 320 318 316 315 314 313 312 311 310 309 309 309 310 310 311 314 316 319 320 321 321 321 321 322 322 322 321 320 318
320 319 318 317 316 317 316 314 312 311 309 308 308 308 308 308 309 309 310 311 312 313 314 315 316 316 316 315 314 313 312 310 309
321 318 317 317 317 315 314 313 311 308 307 306 306 306 306 306 307 307 307 308 309 310 310 309 309 310 308 307 305 304 303 303 303
321 319 318 318 316 314 313 311 308 306 305 305 305 305 305 304 304 303 303 303 302 302 302 302 301 301 301 301 301 301 301 302 302

GFSFLT1_850_thetae_102.txt.gz
Theta_e
348 347 347 347 347 349 350 350 351 349 349 350 346 349 348 342 343 346 345 346 352 348 350 349 352 348 349 343 343 345 344 349 347
349 347 347 347 348 350 350 350 351 350 350 350 350 349 349 344 346 347 349 349 344 351 345 352 345 349 349 348 343 342 344 349 344
349 348 346 347 348 349 348 349 351 351 350 351 350 348 349 349 348 347 344 346 343 347 346 347 347 346 348 350 349 345 345 349 345
349 349 348 347 347 349 350 351 350 348 351 352 351 349 348 348 349 348 348 348 347 349 343 344 345 346 343 345 345 348 347 345 351
348 347 348 348 345 345 349 350 347 346 346 349 351 350 350 344 347 349 347 348 348 349 344 347 344 345 344 343 345 345 346 350 349
351 350 349 349 350 348 346 346 345 344 343 343 343 348 350 345 345 347 348 348 348 348 344 347 350 345 344 344 344 343 344 348 351
350 351 350 350 351 351 350 348 344 343 343 342 343 343 347 348 348 349 349 349 349 349 344 342 347 344 348 347 344 342 344 345 347
348 348 349 349 349 350 350 349 347 343 343 343 343 343 344 343 343 343 343 347 347 347 347 341 339 349 349 346 348 347 345 346 346
346 348 348 349 349 350 350 346 345 344 343 344 344 344 343 342 343 343 342 344 344 340 341 344 341 342 343 345 348 343 341 342 347
346 345 346 348 349 349 349 349 347 347 345 343 342 342 340 339 341 339 339 342 343 345 344 344 343 344 346 342 343 343 343 343 343
343 341 343 343 344 344 344 344 345 346 345 344 344 344 342 342 341 341 341 341 340 340 339 339 343 340 341 341 341 341 342 344 345
339 339 341 341 342 344 344 343 343 344 345 345 345 343 343 343 341 341 340 339 338 338 337 339 341 339 338 337 338 339 340 341 342
335 337 339 341 341 342 341 341 343 343 344 344 342 341 339 340 339 339 339 339 339 339 339 340 340 339 337 337 337 338 338 338 340
334 336 336 337 338 338 339 339 339 340 339 339 339 339 338 337 336 335 334 333 334 336 336 336 336 337 337 337 337 337 338 339 339
332 333 331 331 332 331 330 330 331 331 331 330 330 329 329 329 329 326 325 325 328 332 336 337 336 335 335 335 335 334 330 329 329
327 328 328 327 326 324 323 322 320 319 320 319 318 318 319 319 319 320 321 325 328 330 332 331 331 327 325 328 326 328 330 329 329
325 324 323 322 322 319 316 315 314 313 312 312 312 312 312 312 314 315 318 319 322 322 323 323 322 321 320 324 326 325 323 322 320
321 321 319 318 316 316 315 313 312 311 310 310 312 312 313 312 313 314 312 313 315 317 318 318 317 317 317 315 314 316 315 313 312
319 318 317 317 316 315 314 312 310 308 307 307 310 312 312 312 313 312 311 310 311 312 312 313 313 313 312 312 309 307 305 304 303
321 320 320 319 317 315 314 313 311 309 306 305 306 310 308 309 309 309 310 308 306 307 306 305 304 303 303 302 302 302 302 302 302

GFSFLT1_850_thetae_105.txt.gz
Theta_e
341 344 348 346 346 348 347 347 348 347 351 351 351 351 351 351 351 349 347 349 351 351 351 349 350 350 351 350 352 352 352 349 342
346 347 343 347 345 348 346 347 347 349 352 352 351 352 352 351 350 348 349 348 350 353 351 349 354 351 351 351 351 352 352 349 351
350 348 345 347 347 347 346 349 349 350 350 351 350 349 349 350 350 350 351 351 349 346 351 349 353 352 353 353 353 353 350 350 348
349 349 348 346 349 349 348 350 350 351 350 350 350 350 349 349 347 347 347 347 348 351 348 343 348 348 352 351 354 354 349 349 350
350 350 349 347 344 348 353 352 351 352 353 352 349 350 351 350 350 348 347 347 348 350 350 351 347 355 354 351 353 352 351 352 351
350 351 349 347 346 346 350 354 355 353 352 351 352 352 352 351 350 349 348 347 347 349 351 352 352 350 349 351 352 352 349 353 351
350 350 349 351 350 349 349 349 347 348 348 347 346 348 348 350 352 350 350 348 347 349 351 350 350 351 351 353 351 352 351 352 352
354 353 351 350 352 350 349 350 348 348 345 343 341 342 343 342 346 350 350 350 351 349 348 348 349 350 350 351 350 349 351 352 353
351 351 352 352 353 352 351 352 352 349 349 344 343 343 343 342 344 345 346 349 349 346 348 348 349 350 351 351 349 346 346 344 350
348 351 350 351 350 350 351 352 352 349 347 344 343 343 343 343 343 343 343 344 344 346 346 346 347 348 348 346 343 342 343 343 342
347 347 349 348 350 350 350 350 350 350 348 347 344 345 343 340 340 340 340 339 341 342 340 345 346 347 345 342 341 342 342 343 345
345 342 343 344 344 346 348 349 348 348 348 346 345 345 343 343 342 341 340 341 341 341 340 341 341 342 339 339 339 340 340 342 344
337 337 340 341 342 343 343 343 345 345 344 345 345 345 344 342 342 341 341 340 339 339 338 338 337 334 340 339 338 337 338 340 345
333 337 338 340 340 341 342 341 342 343 343 343 343 343 343 340 340 339 339 340 339 338 339 339 340 340 338 337 336 336 337 338 338
329 334 333 333 335 334 331 333 335 334 335 333 335 337 337 338 336 335 334 334 335 336 337 338 337 336 336 336 336 337 337 337 336
327 330 329 328 327 326 324 324 326 329 328 328 328 327 327 328 327 328 328 327 329 333 335 334 334 331 326 327 333 333 331 330 329
324 324 324 322 318 317 317 317 317 313 315 315 317 318 319 320 322 325 327 328 328 330 330 329 329 328 326 322 327 327 327 326 324
320 318 317 316 316 314 313 312 311 311 312 311 312 315 315 316 317 321 320 320 321 322 324 325 324 324 322 321 319 319 319 318 315
318 318 317 315 314 313 312 311 309 307 307 308 309 314 315 316 317 317 315 313 313 313 315 318 319 318 316 315 315 313 310 308 306
318 317 317 317 316 314 315 314 312 309 307 306 308 312 313 312 313 314 314 312 311 308 310 310 311 310 309 307 305 303 302 302 302

GFSFLT1_850_thetae_111.txt.gz
Theta_e
342 346 346 346 346 346 347 347 347 347 347 343 340 342 342 346 347 348 346 344 342 348 347 349 348 348 347 344 344 345 344 342 342
341 345 346 346 345 347 347 347 348 348 347 346 342 340 345 344 351 349 349 348 347 346 341 346 347 348 347 349 348 348 347 343 347
341 343 346 345 346 347 345 347 348 350 347 347 343 340 344 346 347 349 349 347 347 345 340 338 345 347 349 349 349 345 346 345 346
342 341 342 341 344 347 348 348 348 348 351 348 346 345 343 345 344 344 349 346 343 341 340 344 338 348 350 347 349 349 349 345 345
346 344 342 340 341 346 346 345 346 349 349 343 347 342 349 348 346 341 344 343 344 343 347 344 344 347 349 348 348 346 345 347 343
349 345 343 343 346 346 346 347 346 348 347 347 347 343 346 349 346 344 344 346 344 348 345 348 345 345 345 347 344 348 346 343 343
350 347 344 344 348 348 348 347 345 342 349 351 349 349 344 350 344 346 345 346 346 345 346 344 344 344 350 345 346 349 353 351 344
349 347 345 349 348 348 348 347 346 345 342 344 350 347 348 348 344 349 350 346 349 349 348 346 348 345 345 347 348 347 347 348 347
353 352 351 349 350 348 347 346 345 343 338 341 346 348 349 347 348 344 348 345 349 347 347 346 348 346 349 346 344 343 346 349 351
345 351 352 350 350 350 348 346 345 342 340 341 344 345 347 346 347 343 342 347 346 348 346 344 344 344 345 341 341 340 340 342 346
345 345 347 350 350 351 351 351 348 346 345 347 347 346 347 346 344 343 342 343 343 344 344 344 344 344 340 342 340 341 338 339 341
342 344 345 344 349 349 349 350 350 349 348 347 346 347 347 345 343 342 343 344 344 343 343 343 342 342 340 333 330 336 340 340 340
342 341 342 343 343 344 345 347 348 348 349 350 348 347 346 344 342 340 340 342 342 341 340 341 340 338 335 332 335 337 337 338 341
335 336 339 340 341 341 342 345 346 347 347 348 347 346 346 344 343 341 340 340 340 340 340 341 340 339 338 338 335 334 335 337 340
332 333 335 335 337 339 339 340 342 343 344 344 346 346 345 345 343 342 340 340 340 338 340 340 339 339 338 338 336 336 336 337 339
329 327 328 329 330 331 333 334 336 337 335 338 340 342 341 341 339 339 339 340 339 339 338 337 338 338 338 337 336 335 336 336 336
322 322 323 321 321 321 323 325 328 329 329 329 330 331 332 331 332 332 333 335 334 335 336 335 334 331 329 329 331 333 333 331 330
314 313 312 312 313 315 316 317 315 314 317 320 323 321 324 327 327 328 330 330 332 331 332 332 331 331 328 327 327 325 325 324 325
316 314 313 313 313 311 309 308 310 312 314 313 313 314 316 316 315 314 317 324 327 326 325 326 326 326 325 324 324 323 320 317 314
315 315 315 316 316 315 312 309 309 308 309 312 313 314 316 317 317 317 316 314 311 312 317 314 321 325 323 323 323 321 315 311 309

GFSFLT1_850_thetae_114.txt.gz
Theta_e
342 346 345 345 345 346 345 344 344 341 339 343 341 342 343 347 345 345 346 343 344 340 345 345 340 345 344 350 343 341 341 340 344
341 342 346 345 346 345 345 345 345 345 343 342 341 339 340 343 345 346 347 345 345 346 346 346 348 347 345 345 346 347 347 345 341
340 341 344 346 346 346 347 346 346 346 345 345 342 341 339 340 343 343 346 346 346 343 343 342 343 346 346 347 347 345 345 344 343
340 343 343 345 345 346 346 346 347 346 346 347 346 342 340 339 341 345 345 346 344 343 342 340 338 346 346 348 348 349 349 348 344
339 340 344 345 345 345 346 346 347 347 347 347 347 345 342 340 344 343 341 344 344 341 338 341 341 342 347 346 347 350 346 345 345
345 340 342 343 345 345 347 346 347 347 348 348 348 346 345 343 343 343 341 341 339 340 342 343 343 344 346 346 347 345 344 344 343
343 347 343 341 343 345 346 348 347 348 348 347 348 344 345 345 348 345 342 342 343 343 343 340 344 343 342 345 346 344 345 345 343
346 346 343 342 343 342 346 347 347 346 347 348 348 345 345 344 345 345 345 345 346 345 347 345 347 345 343 346 345 344 345 344 344
337 340 345 349 345 343 342 345 345 346 347 346 347 343 344 346 346 345 343 347 346 345 347 344 344 346 345 344 343 345 345 344 344
338 334 337 346 348 347 347 346 346 346 345 343 343 340 342 348 347 346 345 346 346 343 344 347 344 347 343 342 342 341 342 341 344
335 335 336 341 346 346 347 347 347 346 345 344 339 344 345 346 346 346 346 346 344 343 345 346 345 344 342 342 341 341 340 341 340
336 338 336 341 345 347 348 345 345 344 345 343 339 343 345 344 343 345 343 343 343 343 344 343 344 343 344 343 342 340 337 337 340
333 336 338 339 341 344 345 346 348 346 343 341 344 346 345 345 346 345 344 342 343 343 343 343 343 342 342 342 340 336 333 337 338
331 332 334 336 339 340 340 346 346 337 338 348 347 346 347 346 344 342 341 340 342 342 341 341 341 341 339 335 334 332 334 336 335
329 330 334 334 336 338 340 342 345 345 346 346 345 336 343 345 343 341 340 340 340 340 340 340 341 340 339 338 338 337 335 336 338
329 330 329 331 334 334 335 337 339 341 340 340 343 345 345 344 343 342 340 340 340 339 339 340 340 339 338 338 338 336 335 334 335
324 328 329 326 329 330 331 331 333 334 333 335 337 339 339 339 339 339 339 339 339 339 338 338 337 337 338 335 333 332 332 332 331
319 320 321 320 321 320 321 321 326 328 328 329 331 331 331 331 332 332 332 333 334 334 335 335 333 332 332 329 326 326 326 325 324
312 311 311 310 309 310 313 315 317 318 315 316 322 324 324 322 324 323 323 326 328 329 329 329 327 329 329 328 327 325 322 319 316
313 312 311 311 310 309 308 308 309 311 313 316 316 317 317 317 317 316 315 313 313 315 321 322 322 324 322 322 322 323 323 322 314

GFSFLT1_850_thetae_117.txt.gz
Theta_e
344 344 342 343 343 344 344 344 342 341 342 341 342 340 341 345 345 346 344 344 345 344 346 345 344 344 348 346 343 343 344 342 339
343 345 343 343 342 344 344 344 343 342 340 340 341 340 340 341 344 343 343 346 343 342 341 346 345 342 345 345 345 343 343 342 341
341 344 344 344 344 344 344 344 344 344 343 339 338 341 339 340 342 343 343 346 344 344 345 346 345 347 346 346 343 345 346 345 344
341 342 345 345 345 345 345 345 344 344 344 343 341 341 340 339 339 340 344 345 344 344 343 342 341 341 344 346 345 347 345 346 343
340 343 344 345 345 345 345 345 344 344 345 345 344 344 342 340 339 342 343 344 345 342 341 340 338 339 344 346 347 347 348 348 347
341 340 341 341 343 345 346 346 346 346 346 346 345 346 345 342 344 343 342 343 342 346 343 339 341 342 342 345 346 345 348 345 343
344 343 340 344 344 344 346 346 346 346 345 346 346 346 347 346 344 343 344 341 340 341 341 344 343 344 344 345 345 345 344 344 343
344 344 342 342 343 345 345 345 345 345 346 347 346 347 347 346 344 342 344 344 342 342 343 345 344 346 344 342 344 345 345 344 345
333 338 344 342 341 342 344 346 346 346 346 347 347 347 346 346 345 343 347 345 345 347 346 343 347 347 347 345 345 345 344 344 344
335 340 343 345 345 346 344 345 346 347 348 348 348 348 347 347 344 344 342 344 345 345 345 343 344 344 343 346 343 344 342 342 342
336 336 337 340 339 343 345 345 345 346 346 347 347 348 347 347 345 343 344 344 345 344 346 345 343 344 343 343 342 341 341 341 341
338 339 340 339 340 344 344 342 345 345 345 346 345 343 343 342 342 342 344 345 344 345 345 343 343 345 344 343 343 343 341 339 337
334 335 338 341 341 343 344 343 342 343 340 344 344 343 341 341 345 345 345 345 345 344 343 342 343 343 344 343 343 342 342 340 335
332 333 335 337 337 340 341 344 346 343 337 336 338 336 341 339 344 344 344 344 343 341 343 343 343 343 343 342 339 337 335 336 336
330 331 332 333 336 338 341 341 344 341 339 338 341 344 343 336 338 344 342 340 340 341 341 341 341 341 340 336 336 336 335 334 335
327 328 331 332 335 335 336 338 340 341 340 342 344 342 333 342 338 338 339 338 340 340 340 340 340 340 339 338 337 337 336 334 335
324 325 327 328 330 332 332 333 334 335 336 338 339 339 340 341 341 341 340 340 340 339 339 339 339 338 337 337 337 335 334 334 333
321 319 317 318 321 323 324 326 329 329 329 331 333 334 334 335 336 336 336 336 336 336 337 337 336 336 334 330 327 327 328 327 325
313 313 313 314 315 316 316 316 317 318 321 323 325 326 324 326 325 328 329 329 330 331 331 330 331 330 328 325 324 324 320 318 318
313 312 311 310 309 309 309 311 313 314 315 316 316 316 317 317 316 315 314 314 314 314 320 322 323 325 326 326 325 323 323 322 321

GFSFLT1_850_thetae_120.txt.gz
Theta_e
341 343 339 342 343 342 343 342 343 342 341 340 340 340 340 342 344 345 345 345 346 346 346 345 346 345 344 344 345 344 342 343 340
341 344 340 340 342 342 342 342 343 342 341 341 341 340 341 343 344 345 345 345 343 344 343 345 345 345 344 344 345 343 342 343 343
341 344 342 341 342 342 342 342 344 343 341 340 340 340 341 341 340 342 343 343 343 346 342 341 346 345 344 342 345 344 343 345 345
339 343 344 341 341 342 341 342 343 343 342 341 340 339 338 342 341 341 341 343 344 345 345 344 343 345 345 345 346 345 344 345 345
339 342 344 343 341 341 341 342 343 344 343 343 342 340 338 340 340 340 341 341 343 345 345 342 341 341 341 340 346 346 346 345 347
340 341 344 344 343 342 342 342 343 344 344 343 344 344 342 341 340 339 337 340 342 345 345 343 340 340 340 341 346 346 346 346 346
341 340 342 345 345 344 344 345 344 344 345 344 344 344 345 344 344 341 339 342 341 344 344 344 340 342 343 341 344 346 345 345 345
343 342 341 340 341 342 343 345 345 345 345 345 345 345 345 345 345 346 344 342 343 342 342 341 343 345 345 344 344 344 344 343 344
340 343 343 342 341 341 344 344 345 346 346 346 346 346 345 345 346 347 346 342 343 344 341 343 344 346 346 346 344 341 342 343 344
334 336 340 345 343 342 342 344 345 346 346 345 346 346 347 347 347 347 346 343 344 345 344 345 344 343 343 344 344 344 342 342 343
331 333 337 340 342 345 343 344 343 343 344 345 346 346 346 347 348 347 346 344 342 344 342 344 344 344 344 344 343 342 342 342 341
331 333 335 337 341 343 343 344 342 343 345 345 345 345 345 345 346 347 346 345 343 343 343 343 344 345 344 343 344 342 338 341 339
331 332 334 336 338 340 341 344 340 340 345 344 342 336 340 342 344 341 343 343 343 344 341 343 341 342 341 343 344 340 335 341 340
330 330 332 335 336 338 340 343 344 344 342 337 337 337 334 336 340 341 343 343 343 344 342 342 341 340 342 343 343 343 341 341 339
329 329 332 334 336 337 339 341 341 344 343 336 336 335 336 342 337 339 343 343 342 341 342 340 339 339 340 341 337 336 335 334 334
326 329 331 331 333 335 337 337 338 339 340 341 342 341 342 341 336 338 338 339 336 334 337 338 339 339 339 338 336 335 335 335 336
325 327 329 329 329 330 330 332 333 333 334 337 339 339 334 338 341 338 337 338 334 338 338 338 339 338 337 335 335 334 332 333 333
322 322 323 323 324 325 325 326 327 329 330 332 335 335 334 335 335 336 336 336 337 337 337 336 337 336 334 333 330 328 326 325 327
319 319 317 317 317 317 318 318 317 320 322 325 327 329 330 330 329 328 329 330 330 330 330 329 330 330 327 327 324 325 322 321 319
310 310 310 310 309 309 310 312 314 316 316 316 316 317 317 317 315 314 314 313 314 313 317 319 320 323 325 324 324 324 322 321 320

GFSFLT1_850_thetae_123.txt.gz
Theta_e
344 343 341 343 344 343 343 342 343 342 341 339 338 337 339 344 344 344 344 344 345 345 345 345 344 345 344 343 343 344 343 342 343
343 343 342 342 344 344 342 342 342 342 342 340 339 339 342 341 341 343 344 345 345 345 344 345 345 346 345 345 345 345 345 343 342
343 343 342 342 341 343 342 342 342 342 343 341 340 340 339 339 340 343 345 345 345 345 345 344 342 342 344 345 343 344 344 344 342
344 343 343 342 341 340 341 342 342 342 343 342 341 340 341 339 340 341 341 342 342 344 343 345 343 344 345 345 345 344 345 343 343
340 342 343 341 342 340 340 342 341 342 343 343 341 341 340 339 340 341 340 340 340 343 344 344 345 342 342 343 343 345 346 344 344
342 340 341 342 342 341 340 341 341 342 342 343 343 342 341 339 338 339 340 338 339 340 342 345 344 340 340 340 339 342 345 344 345
343 343 342 343 343 343 341 340 341 341 342 343 343 343 343 342 340 340 339 337 337 338 341 344 345 343 340 342 342 341 346 346 344
343 345 345 345 344 344 343 342 342 342 342 342 344 344 343 343 343 342 342 343 340 340 341 344 344 345 343 343 344 343 344 345 345
336 340 342 343 343 344 343 344 344 344 344 344 344 344 345 345 344 344 344 344 345 343 342 343 343 343 342 344 344 345 342 343 343
333 335 338 343 342 342 342 342 342 343 343 344 345 345 345 345 346 346 346 345 346 345 343 343 342 342 344 345 344 345 345 343 343
334 336 338 339 342 342 343 344 345 342 345 346 346 345 346 346 345 345 346 347 346 347 344 343 343 344 346 344 343 343 342 343 342
332 334 336 337 340 343 343 343 344 344 344 343 343 345 342 343 344 343 344 344 343 346 344 343 343 341 343 344 344 344 342 343 342
329 331 334 337 339 340 341 342 342 340 344 344 344 343 343 340 337 339 343 344 343 344 343 344 343 343 342 341 341 341 343 343 342
327 328 331 335 334 338 340 343 343 343 344 344 340 339 340 336 337 339 341 343 343 344 344 344 343 342 342 335 342 339 338 341 339
327 329 331 332 334 336 338 340 341 343 342 338 336 335 335 338 339 337 340 342 343 342 342 342 342 339 336 340 340 338 334 339 338
326 328 330 332 333 334 334 335 337 339 340 340 340 339 341 342 340 341 339 341 338 338 336 337 334 337 337 338 338 335 335 336 335
325 327 327 327 329 331 331 332 333 334 336 338 339 340 340 336 337 339 337 339 336 334 338 337 335 336 337 337 335 334 335 335 335
324 323 321 322 324 325 326 327 330 331 331 333 334 334 335 335 336 336 336 336 335 336 334 335 336 336 334 332 331 328 328 329 329
319 318 318 318 318 318 318 317 320 320 320 323 326 328 329 328 329 329 331 331 331 330 330 330 329 329 328 328 327 326 324 323 322
311 311 310 310 310 311 312 314 315 315 316 316 316 316 315 313 312 313 313 313 312 314 318 320 321 324 324 324 323 321 322 322 321

GFSFLT1_850_thetae_126.txt.gz
Theta_e
346 345 344 342 343 345 347 348 348 348 349 347 345 345 346 348 345 348 348 349 348 349 349 350 351 352 351 351 350 351 350 349 350
346 346 344 341 343 345 347 348 348 349 349 349 348 346 345 342 342 344 350 351 351 349 351 351 349 347 351 350 351 350 350 351 351
346 346 345 342 342 345 347 347 348 349 349 349 348 346 346 346 348 343 347 347 347 351 350 345 345 346 347 350 350 350 348 350 351
346 346 346 345 343 344 346 347 347 348 349 349 349 347 347 347 348 348 347 349 345 344 346 344 343 344 342 345 349 349 349 346 345
344 345 344 345 343 346 346 347 347 347 349 349 349 348 348 348 348 348 349 347 348 347 342 342 345 345 344 342 343 349 349 348 351
344 344 345 346 346 344 343 346 349 349 349 349 350 350 349 349 349 349 348 348 348 344 340 341 344 345 343 340 340 342 348 344 349
347 346 346 346 346 345 342 348 349 350 350 349 350 350 350 350 350 348 348 349 350 349 347 340 339 344 345 343 339 341 342 346 349
345 345 348 347 345 346 342 343 347 344 342 349 344 345 350 351 351 350 348 350 349 347 342 347 342 344 346 345 345 347 348 345 344
337 339 342 345 347 347 347 347 346 347 342 342 343 342 343 348 344 344 343 344 344 346 344 344 346 348 348 347 347 347 344 344 344
333 337 340 341 342 345 345 346 348 347 349 350 344 346 344 344 344 345 345 345 346 345 345 346 346 345 346 347 346 343 344 345 343
332 335 336 338 341 342 343 344 344 342 342 346 349 348 345 347 347 346 345 345 345 344 346 346 346 346 346 344 346 344 343 343 344
332 333 335 336 339 341 342 342 342 343 342 344 346 347 347 346 344 344 345 344 344 344 345 345 344 343 342 343 344 344 344 343 343
332 333 335 336 338 339 341 342 343 342 343 344 345 345 343 342 342 337 337 338 340 342 344 344 343 342 342 343 343 342 342 340 343
332 332 334 335 337 338 340 342 342 341 341 344 344 343 343 339 338 339 338 341 342 344 343 343 343 342 342 343 341 338 335 334 339
329 331 332 334 336 336 338 341 343 343 342 343 339 338 337 338 336 337 339 340 341 342 343 343 343 342 340 338 339 340 336 334 339
327 330 331 333 334 334 335 337 339 341 341 339 338 336 336 339 339 339 340 339 338 338 338 338 339 337 336 337 338 338 338 336 336
326 328 328 329 330 332 333 333 334 336 338 339 340 340 339 337 338 339 338 337 339 336 336 337 337 337 337 336 336 336 335 335 336
325 325 325 327 327 326 327 329 331 331 332 333 335 336 336 337 337 338 338 337 337 335 336 334 335 334 334 333 331 332 333 335 332
324 323 322 321 320 319 321 322 321 321 322 326 329 330 330 331 332 332 332 332 331 331 331 331 330 330 329 328 327 328 326 327 326
322 320 319 319 318 319 317 316 316 316 316 317 315 314 313 315 317 316 314 313 314 319 320 322 325 325 325 324 323 323 323 322 321

GFSFLT1_850_thetae_129.txt.gz
Theta_e
348 345 344 341 342 343 345 346 347 348 351 354 352 350 350 350 351 350 349 351 349 348 349 348 351 353 351 351 351 351 352 350 352
347 346 345 342 342 343 345 346 347 349 351 354 353 350 349 350 350 351 349 349 351 350 348 349 352 351 352 352 351 351 351 350 350
345 347 345 344 342 343 344 346 347 349 351 353 353 350 349 348 350 351 352 354 351 353 353 353 346 350 352 352 352 352 353 350 350
347 347 348 346 341 343 345 345 347 348 350 352 353 350 348 348 349 351 352 351 352 352 352 353 353 351 353 352 353 351 350 348 350
346 346 348 346 343 343 345 346 347 348 349 351 352 351 350 349 349 350 350 352 353 353 353 353 353 351 353 353 353 353 352 351 350
335 343 346 347 348 347 346 347 349 348 350 350 351 352 351 350 349 349 349 350 351 352 353 353 352 354 352 353 352 351 352 351 351
339 347 346 347 348 349 347 349 349 351 350 351 351 352 352 352 352 350 350 350 351 351 353 352 352 352 352 351 352 350 351 351 352
348 347 347 351 349 349 348 349 352 352 353 352 353 353 353 353 354 354 353 352 353 352 353 351 353 352 352 351 351 350 351 352 351
342 342 340 347 348 347 347 343 346 352 353 353 354 350 351 354 355 355 350 347 345 345 347 346 345 346 348 348 349 348 348 347 347
337 335 339 341 345 344 346 348 347 351 352 353 346 351 346 345 352 352 345 344 344 345 345 346 349 345 346 346 346 347 345 345 344
334 334 334 338 342 342 342 343 344 344 344 345 349 350 348 351 347 345 346 345 349 346 344 345 346 347 345 345 342 343 342 340 345
334 335 336 337 339 342 342 342 343 342 343 349 350 348 350 350 351 349 349 349 348 347 347 348 347 346 346 345 344 342 342 343 344
335 334 335 334 338 339 340 342 341 343 345 345 346 346 347 348 346 344 342 340 339 338 339 343 344 346 345 344 343 342 343 343 343
335 336 335 335 336 338 341 343 344 344 344 344 344 345 345 343 343 346 345 341 341 342 345 344 343 344 345 343 342 342 344 343 341
335 335 335 335 335 334 338 342 343 343 343 342 342 342 343 342 340 337 338 341 341 342 342 343 343 343 341 339 340 338 339 336 333
333 333 332 332 332 333 335 338 340 342 342 341 339 337 336 338 340 339 338 340 338 338 338 337 338 339 337 335 336 338 338 338 336
330 331 331 332 331 331 330 333 337 338 339 340 340 340 339 340 340 340 338 337 338 337 336 336 336 336 337 336 336 336 335 335 336
329 330 329 330 329 329 329 330 331 334 336 337 337 338 337 338 338 339 338 337 338 337 335 336 337 336 335 335 335 334 333 333 332
329 329 327 326 327 327 327 326 326 326 329 331 332 333 334 335 335 334 334 333 333 332 332 331 331 331 331 330 330 328 328 327 326
326 326 326 325 324 324 323 322 322 323 324 319 320 324 323 321 320 319 319 322 323 324 323 325 326 326 325 324 324 323 322 321 320

GFSFLT1_850_thetae_132.txt.gz
Theta_e
348 347 346 343 343 345 344 346 347 349 351 348 346 349 346 343 342 345 349 349 349 348 346 347 351 350 352 349 349 347 351 348 349
349 347 347 342 344 346 345 347 346 349 350 350 348 349 350 345 344 349 348 348 348 348 347 350 343 343 351 349 351 350 348 349 347
346 346 347 345 343 345 346 348 348 347 349 351 350 351 350 349 346 345 347 350 349 352 351 349 347 350 352 351 350 347 347 349 348
346 345 346 347 345 344 346 346 348 348 350 354 353 352 351 348 348 350 348 348 350 351 348 349 352 348 345 348 349 350 347 346 345
347 348 347 348 347 344 345 345 347 348 350 352 353 353 350 349 349 349 349 347 348 352 346 347 350 348 349 348 349 351 349 347 349
345 346 346 347 345 345 345 345 346 349 350 351 353 353 351 349 349 350 351 352 349 349 353 350 350 351 352 349 347 350 350 348 348
347 341 343 345 344 347 348 347 347 349 348 353 352 352 352 351 350 349 349 346 349 351 350 349 348 347 348 349 349 347 349 348 345
349 347 339 340 343 345 351 352 352 351 352 343 352 353 352 352 352 351 351 350 350 350 348 349 347 347 347 346 346 344 350 347 348
344 340 343 344 347 336 341 350 351 354 351 355 352 352 355 355 352 354 352 350 350 351 349 347 347 344 345 345 345 349 348 348 348
337 337 339 339 343 346 347 345 347 352 353 355 356 353 353 355 355 352 352 349 346 347 347 345 344 346 347 346 346 346 346 345 342
337 338 340 340 341 343 344 345 344 347 349 350 351 352 348 349 352 350 351 352 349 345 346 345 345 346 346 348 348 347 346 345 340
337 337 339 340 340 341 341 340 340 340 343 345 344 342 344 349 348 347 349 348 348 348 350 349 347 348 348 348 348 347 346 345 344
337 337 337 337 338 340 341 342 342 343 343 340 346 348 343 341 350 350 350 350 349 345 344 342 342 344 344 346 348 348 345 344 343
337 336 336 338 336 340 342 342 342 348 346 346 346 347 347 346 344 341 340 340 340 341 341 342 344 344 345 344 344 344 341 342 342
337 337 337 336 337 338 342 342 344 345 342 343 346 345 345 344 342 341 336 337 339 341 342 343 343 342 342 341 340 339 341 340 336
336 335 335 335 334 335 336 339 341 341 342 341 342 341 340 338 338 339 339 340 338 338 338 336 336 338 337 336 336 337 337 337 337
334 333 333 334 334 332 333 335 338 338 339 339 339 337 337 338 340 339 338 338 336 336 337 336 334 336 337 336 335 335 335 335 336
332 332 332 332 332 331 332 331 333 336 336 337 338 338 338 338 338 339 338 337 337 337 335 336 336 334 333 333 334 333 333 332 332
330 329 330 330 330 330 329 329 329 331 332 333 334 335 336 336 336 336 335 334 333 333 332 332 332 332 331 330 328 327 327 326 325
329 328 328 328 328 327 326 326 327 325 322 328 327 328 327 326 326 327 328 326 325 326 326 326 326 325 324 322 321 319 317 313 311